| time (UTC) | temp F | wind direction | speed knots | gust knots | rain 1hr in | rain 24hr in | rain mn in | humidity % | barometer mb |
| 20260507040711 | 44 | 230 | 2.6 | 3.5 | 0.00 | 0.00 | 0.00 | 99 | 1041.3 |
| 20260507040207 | 44 | 232 | 2.6 | 3.5 | 0.00 | 0.00 | 0.00 | 99 | 1041.2 |
| 20260507035703 | 44 | 225 | 2.6 | 3.5 | 0.00 | 0.52 | 0.52 | 99 | 1041.1 |
| 20260507035159 | 44 | 232 | 2.6 | 3.5 | 0.00 | 0.52 | 0.52 | 99 | 1041.1 |
| 20260507034656 | 44 | 243 | 2.6 | 3.5 | 0.00 | 0.52 | 0.52 | 99 | 1040.5 |
| 20260507034154 | 44 | 223 | 3.5 | 3.5 | 0.00 | 0.52 | 0.52 | 99 | 1040.8 |
| 20260507033652 | 44 | 234 | 3.5 | 4.3 | 0.00 | 0.52 | 0.52 | 99 | 1040.4 |
| 20260507033149 | 44 | 237 | 2.6 | 3.5 | 0.00 | 0.52 | 0.52 | 99 | 1040.5 |
| 20260507032647 | 44 | 233 | 2.6 | 3.5 | 0.00 | 0.52 | 0.52 | 99 | 1040.9 |
| 20260507032142 | 44 | 233 | 2.6 | 4.3 | 0.00 | 0.52 | 0.52 | 99 | 1040.8 |
| 20260507031639 | 44 | 218 | 3.5 | 3.5 | 0.00 | 0.52 | 0.52 | 99 | 1040.9 |
| 20260507031136 | 44 | 236 | 2.6 | 3.5 | 0.00 | 0.52 | 0.52 | 99 | 1041.1 |
| 20260507030633 | 44 | 221 | 2.6 | 3.5 | 0.00 | 0.52 | 0.52 | 99 | 1041.2 |
| 20260507030131 | 44 | 227 | 2.6 | 3.5 | 0.00 | 0.52 | 0.52 | 99 | 1041.2 |
| 20260507025627 | 44 | 222 | 2.6 | 2.6 | 0.02 | 0.52 | 0.52 | 99 | 1041.3 |
| 20260507025124 | 44 | 235 | 2.6 | 3.5 | 0.02 | 0.52 | 0.52 | 99 | 1041.2 |
| 20260507024622 | 44 | 237 | 2.6 | 2.6 | 0.00 | 0.51 | 0.51 | 99 | 1041.0 |
| 20260507024119 | 44 | 251 | 1.7 | 2.6 | 0.02 | 0.51 | 0.51 | 99 | 1041.1 |
| 20260507023615 | 44 | 257 | 1.7 | 3.5 | 0.02 | 0.51 | 0.51 | 99 | 1041.1 |
| 20260507023112 | 44 | 265 | 1.7 | 2.6 | 0.00 | 0.51 | 0.51 | 99 | 1041.2 |
| 20260507022609 | 44 | 275 | 1.7 | 3.5 | 0.00 | 0.51 | 0.51 | 99 | 1041.1 |
| 20260507022104 | 44 | 239 | 2.6 | 3.5 | 0.00 | 0.51 | 0.51 | 99 | 1041.1 |
| 20260507021601 | 44 | 270 | 1.7 | 3.5 | 0.00 | 0.51 | 0.51 | 99 | 1041.3 |
| 20260507021057 | 44 | 235 | 2.6 | 3.5 | 0.00 | 0.51 | 0.51 | 99 | 1041.3 |
| 20260507020555 | 44 | 244 | 2.6 | 3.5 | 0.00 | 0.51 | 0.51 | 99 | 1041.4 |
| 20260507020051 | 44 | 240 | 2.6 | 2.6 | 0.00 | 0.51 | 0.51 | 99 | 1041.4 |
| 20260507015550 | 44 | 262 | 1.7 | 3.5 | 0.00 | 0.51 | 0.51 | 99 | 1041.6 |
| 20260507015047 | 44 | 216 | 3.5 | 3.5 | 0.00 | 0.51 | 0.51 | 99 | 1041.5 |
| 20260507014543 | 44 | 248 | 2.6 | 3.5 | 0.00 | 0.51 | 0.51 | 99 | 1041.4 |
| 20260507014039 | 44 | 243 | 2.6 | 2.6 | 0.00 | 0.51 | 0.51 | 99 | 1041.5 |
| 20260507013536 | 44 | 248 | 2.6 | 2.6 | 0.00 | 0.51 | 0.51 | 99 | 1041.4 |
| 20260507013033 | 44 | 244 | 2.6 | 3.5 | 0.00 | 0.51 | 0.51 | 99 | 1041.7 |
| 20260507012530 | 44 | 257 | 1.7 | 2.6 | 0.00 | 0.51 | 0.51 | 99 | 1041.6 |
| 20260507012026 | 44 | 259 | 1.7 | 3.5 | 0.00 | 0.51 | 0.51 | 99 | 1041.3 |
| 20260507011524 | 43 | 256 | 2.6 | 3.5 | 0.00 | 0.51 | 0.51 | 99 | 1041.4 |
| 20260507011020 | 43 | 250 | 1.7 | 3.5 | 0.00 | 0.51 | 0.51 | 99 | 1041.4 |
| 20260507010514 | 43 | 261 | 1.7 | 3.5 | 0.00 | 0.51 | 0.51 | 99 | 1041.1 |
| 20260507010011 | 43 | 243 | 2.6 | 3.5 | 0.00 | 0.51 | 0.51 | 99 | 1041.4 |
| 20260507005509 | 43 | 261 | 1.7 | 2.6 | 0.00 | 0.51 | 0.51 | 99 | 1041.3 |
| 20260507005005 | 43 | 236 | 1.7 | 3.5 | 0.00 | 0.51 | 0.51 | 99 | 1041.1 |
| 20260507004502 | 43 | 262 | 1.7 | 3.5 | 0.00 | 0.51 | 0.51 | 99 | 1041.1 |
| 20260507004000 | 44 | 266 | 2.6 | 4.3 | 0.00 | 0.51 | 0.51 | 99 | 1041.2 |
| 20260507003454 | 44 | 234 | 2.6 | 3.5 | 0.00 | 0.51 | 0.51 | 99 | 1041.0 |
| 20260507002949 | 44 | 263 | 2.6 | 2.6 | 0.00 | 0.51 | 0.51 | 99 | 1040.8 |
| 20260507002441 | 44 | 244 | 2.6 | 3.5 | 0.00 | 0.51 | 0.51 | 99 | 1040.9 |
| 20260507001937 | 44 | 252 | 1.7 | 2.6 | 0.00 | 0.51 | 0.51 | 99 | 1040.6 |
| 20260507001434 | 45 | 249 | 2.6 | 2.6 | 0.00 | 0.51 | 0.51 | 99 | 1040.6 |
| 20260507000932 | 45 | 248 | 2.6 | 3.5 | 0.00 | 0.51 | 0.51 | 99 | 1040.9 |
| 20260507000427 | 45 | 259 | 2.6 | 3.5 | 0.00 | 0.51 | 0.51 | 99 | 1041.0 |
| 20260506235923 | 45 | 262 | 1.7 | 3.5 | 0.00 | 0.51 | 0.51 | 99 | 1040.7 |
| 20260506235421 | 46 | 229 | 2.6 | 3.5 | 0.00 | 0.51 | 0.51 | 99 | 1040.8 |
| 20260506234915 | 46 | 244 | 2.6 | 3.5 | 0.00 | 0.51 | 0.51 | 99 | 1040.6 |
| 20260506234414 | 46 | 223 | 3.5 | 3.5 | 0.00 | 0.51 | 0.51 | 99 | 1040.9 |
| 20260506233911 | 46 | 243 | 1.7 | 3.5 | 0.00 | 0.51 | 0.51 | 99 | 1040.7 |
| 20260506233407 | 46 | 227 | 2.6 | 3.5 | 0.00 | 0.51 | 0.51 | 99 | 1040.4 |
| 20260506232904 | 46 | 246 | 2.6 | 3.5 | 0.00 | 0.51 | 0.51 | 99 | 1040.5 |
| 20260506232400 | 46 | 254 | 1.7 | 4.3 | 0.00 | 0.51 | 0.51 | 99 | 1040.3 |
| 20260506231856 | 46 | 229 | 2.6 | 3.5 | 0.00 | 0.51 | 0.51 | 99 | 1040.2 |
| 20260506231354 | 46 | 227 | 2.6 | 3.5 | 0.00 | 0.51 | 0.51 | 99 | 1040.3 |
| 20260506230851 | 46 | 244 | 2.6 | 3.5 | 0.00 | 0.51 | 0.51 | 99 | 1040.4 |
| 20260506230348 | 46 | 255 | 2.6 | 4.3 | 0.00 | 0.51 | 0.51 | 99 | 1040.3 |
| 20260506225844 | 46 | 210 | 3.5 | 3.5 | 0.00 | 0.51 | 0.51 | 99 | 1040.3 |
| 20260506225342 | 46 | 234 | 2.6 | 3.5 | 0.00 | 0.51 | 0.51 | 99 | 1040.1 |
| 20260506224838 | 46 | 235 | 2.6 | 4.3 | 0.00 | 0.51 | 0.51 | 99 | 1040.3 |
| 20260506224336 | 46 | 236 | 2.6 | 4.3 | 0.00 | 0.51 | 0.51 | 99 | 1040.0 |
| 20260506223832 | 46 | 248 | 2.6 | 4.3 | 0.00 | 0.51 | 0.51 | 99 | 1040.2 |
| 20260506223327 | 46 | 229 | 2.6 | 2.6 | 0.00 | 0.51 | 0.51 | 99 | 1040.0 |
| 20260506222825 | 46 | 235 | 2.6 | 3.5 | 0.00 | 0.51 | 0.51 | 99 | 1040.0 |
| 20260506222320 | 46 | 266 | 2.6 | 5.2 | 0.00 | 0.51 | 0.51 | 99 | 1040.1 |
| 20260506221818 | 46 | 218 | 2.6 | 3.5 | 0.00 | 0.51 | 0.51 | 99 | 1040.0 |
| 20260506221316 | 46 | 236 | 4.3 | 4.3 | 0.00 | 0.51 | 0.51 | 99 | 1039.9 |
| 20260506220813 | 46 | 210 | 2.6 | 3.5 | 0.00 | 0.51 | 0.51 | 99 | 1040.1 |
| 20260506220308 | 46 | 250 | 2.6 | 4.3 | 0.00 | 0.51 | 0.51 | 99 | 1039.9 |
| 20260506215805 | 46 | 221 | 3.5 | 6.1 | 0.00 | 0.51 | 0.51 | 99 | 1040.1 |
| 20260506215301 | 46 | 226 | 3.5 | 3.5 | 0.00 | 0.51 | 0.51 | 99 | 1040.3 |
| 20260506214756 | 46 | 214 | 3.5 | 3.5 | 0.00 | 0.51 | 0.51 | 99 | 1040.1 |
| 20260506214254 | 46 | 223 | 3.5 | 4.3 | 0.00 | 0.51 | 0.51 | 99 | 1039.9 |
| 20260506213752 | 46 | 236 | 2.6 | 4.3 | 0.00 | 0.51 | 0.51 | 99 | 1039.9 |
| 20260506213248 | 46 | 247 | 2.6 | 4.3 | 0.00 | 0.51 | 0.51 | 99 | 1040.0 |
| 20260506212746 | 46 | 247 | 2.6 | 3.5 | 0.00 | 0.51 | 0.51 | 99 | 1039.8 |
| 20260506212242 | 46 | 235 | 4.3 | 5.2 | 0.00 | 0.51 | 0.51 | 99 | 1040.0 |
| 20260506211737 | 46 | 220 | 2.6 | 5.2 | 0.00 | 0.51 | 0.51 | 99 | 1039.8 |
| 20260506211233 | 46 | 229 | 2.6 | 3.5 | 0.00 | 0.51 | 0.51 | 99 | 1039.8 |
| 20260506210730 | 46 | 250 | 1.7 | 3.5 | 0.00 | 0.51 | 0.51 | 99 | 1039.8 |
| 20260506210222 | 46 | 249 | 5.2 | 5.2 | 0.00 | 0.51 | 0.51 | 99 | 1039.9 |
| 20260506205719 | 46 | 251 | 2.6 | 4.3 | 0.00 | 0.51 | 0.51 | 99 | 1039.9 |
| 20260506205214 | 46 | 238 | 3.5 | 4.3 | 0.00 | 0.51 | 0.51 | 99 | 1039.6 |
| 20260506204712 | 46 | 246 | 2.6 | 4.3 | 0.00 | 0.51 | 0.51 | 99 | 1039.4 |
| 20260506204209 | 46 | 242 | 4.3 | 4.3 | 0.00 | 0.51 | 0.51 | 99 | 1039.2 |
| 20260506203707 | 46 | 210 | 2.6 | 6.1 | 0.00 | 0.51 | 0.51 | 99 | 1039.2 |
| 20260506203204 | 46 | 233 | 4.3 | 5.2 | 0.00 | 0.51 | 0.51 | 99 | 1039.1 |
| 20260506202701 | 46 | 186 | 0.9 | 3.5 | 0.00 | 0.51 | 0.51 | 99 | 1039.3 |
| 20260506202157 | 46 | 229 | 2.6 | 3.5 | 0.00 | 0.51 | 0.51 | 99 | 1038.9 |
| 20260506201654 | 46 | 231 | 2.6 | 4.3 | 0.00 | 0.51 | 0.51 | 99 | 1039.0 |
| 20260506201150 | 46 | 229 | 2.6 | 4.3 | 0.00 | 0.51 | 0.51 | 99 | 1038.6 |
| 20260506200648 | 46 | 245 | 3.5 | 5.2 | 0.00 | 0.51 | 0.51 | 99 | 1038.7 |
| 20260506200144 | 46 | 206 | 2.6 | 5.2 | 0.00 | 0.51 | 0.51 | 99 | 1038.7 |
| 20260506195641 | 46 | 273 | 2.6 | 7.8 | 0.00 | 0.51 | 0.51 | 99 | 1038.9 |
| 20260506195137 | 46 | 223 | 3.5 | 6.1 | 0.00 | 0.51 | 0.51 | 99 | 1038.7 |
| 20260506194635 | 46 | 244 | 2.6 | 5.2 | 0.00 | 0.51 | 0.51 | 99 | 1038.6 |
| 20260506194131 | 47 | 234 | 3.5 | 4.3 | 0.00 | 0.51 | 0.51 | 99 | 1038.5 |
| 20260506193629 | 47 | 261 | 2.6 | 7.8 | 0.00 | 0.51 | 0.51 | 99 | 1038.5 |
| 20260506193126 | 47 | 255 | 3.5 | 5.2 | 0.00 | 0.51 | 0.51 | 99 | 1038.6 |
| 20260506192623 | 47 | 209 | 2.6 | 4.3 | 0.00 | 0.51 | 0.51 | 99 | 1038.2 |
| 20260506192118 | 47 | 256 | 2.6 | 5.2 | 0.00 | 0.51 | 0.51 | 99 | 1038.6 |
| 20260506191615 | 47 | 252 | 2.6 | 4.3 | 0.02 | 0.51 | 0.51 | 99 | 1038.6 |
| 20260506191111 | 47 | 258 | 5.2 | 5.2 | 0.00 | 0.50 | 0.50 | 99 | 1038.4 |
| 20260506190609 | 47 | 233 | 2.6 | 4.3 | 0.00 | 0.50 | 0.50 | 99 | 1038.3 |
| 20260506190106 | 47 | 219 | 2.6 | 5.2 | 0.00 | 0.50 | 0.50 | 99 | 1038.4 |
| 20260506185603 | 47 | 264 | 2.6 | 5.2 | 0.00 | 0.50 | 0.50 | 99 | 1038.5 |
| 20260506185059 | 47 | 255 | 3.5 | 7.0 | 0.00 | 0.50 | 0.50 | 99 | 1038.2 |
| 20260506184556 | 47 | 237 | 2.6 | 6.1 | 0.00 | 0.50 | 0.50 | 99 | 1038.3 |
| 20260506184054 | 47 | 210 | 0.0 | 3.5 | 0.02 | 0.50 | 0.50 | 99 | 1038.4 |
| 20260506183550 | 47 | 251 | 2.6 | 3.5 | 0.02 | 0.50 | 0.50 | 99 | 1038.4 |
| 20260506183046 | 47 | 241 | 3.5 | 3.5 | 0.00 | 0.50 | 0.50 | 99 | 1038.2 |
| 20260506182544 | 47 | 220 | 2.6 | 3.5 | 0.00 | 0.50 | 0.50 | 99 | 1038.0 |
| 20260506182041 | 47 | 233 | 1.7 | 5.2 | 0.00 | 0.50 | 0.50 | 99 | 1038.0 |
| 20260506181539 | 47 | 237 | 2.6 | 6.1 | 0.02 | 0.50 | 0.50 | 99 | 1038.0 |
| 20260506181035 | 47 | 180 | 1.7 | 5.2 | 0.02 | 0.50 | 0.50 | 99 | 1037.8 |
| 20260506180532 | 48 | 254 | 2.6 | 4.3 | 0.02 | 0.50 | 0.50 | 99 | 1037.7 |
| 20260506180029 | 47 | 241 | 2.6 | 4.3 | 0.02 | 0.50 | 0.50 | 99 | 1037.6 |
| 20260506175525 | 47 | 260 | 2.6 | 7.0 | 0.02 | 0.49 | 0.49 | 99 | 1037.8 |
| 20260506175022 | 47 | 216 | 1.7 | 4.3 | 0.02 | 0.49 | 0.49 | 99 | 1037.6 |
| 20260506174520 | 47 | 238 | 2.6 | 6.1 | 0.00 | 0.49 | 0.49 | 99 | 1037.6 |
| 20260506174016 | 47 | 239 | 2.6 | 7.0 | 0.00 | 0.49 | 0.49 | 99 | 1037.7 |
| 20260506173514 | 47 | 248 | 2.6 | 3.5 | 0.00 | 0.49 | 0.49 | 99 | 1037.4 |
| 20260506173011 | 47 | 240 | 2.6 | 3.5 | 0.00 | 0.49 | 0.49 | 99 | 1037.7 |
| 20260506172508 | 47 | 237 | 2.6 | 3.5 | 0.00 | 0.49 | 0.49 | 99 | 1037.6 |
| 20260506172004 | 47 | 236 | 4.3 | 5.2 | 0.00 | 0.49 | 0.49 | 99 | 1037.4 |
| 20260506171502 | 47 | 228 | 3.5 | 5.2 | 0.02 | 0.49 | 0.49 | 99 | 1037.4 |
| 20260506170959 | 47 | 246 | 2.6 | 4.3 | 0.02 | 0.49 | 0.49 | 99 | 1037.4 |
| 20260506170456 | 47 | 245 | 3.5 | 5.2 | 0.00 | 0.48 | 0.48 | 99 | 1037.3 |
| 20260506165954 | 47 | 202 | 1.7 | 3.5 | 0.00 | 0.48 | 0.48 | 99 | 1037.5 |
| 20260506165452 | 47 | 231 | 2.6 | 4.3 | 0.00 | 0.48 | 0.48 | 99 | 1037.6 |
| 20260506164942 | 47 | 238 | 4.3 | 4.3 | 0.00 | 0.48 | 0.48 | 99 | 1037.4 |
| 20260506164439 | 47 | 246 | 0.9 | 4.3 | 0.00 | 0.48 | 0.48 | 99 | 1037.7 |
| 20260506163937 | 46 | 243 | 2.6 | 4.3 | 0.02 | 0.48 | 0.48 | 99 | 1037.6 |
| 20260506163431 | 46 | 260 | 1.7 | 6.1 | 0.02 | 0.48 | 0.48 | 99 | 1037.3 |
| 20260506162926 | 46 | 230 | 1.7 | 3.5 | 0.00 | 0.48 | 0.48 | 99 | 1037.2 |
| 20260506162424 | 47 | 239 | 3.5 | 4.3 | 0.00 | 0.48 | 0.48 | 99 | 1037.4 |
| 20260506161916 | 47 | 219 | 2.6 | 3.5 | 0.00 | 0.48 | 0.48 | 99 | 1037.5 |
| 20260506161414 | 46 | 245 | 1.7 | 4.3 | 0.00 | 0.48 | 0.48 | 99 | 1037.4 |
| 20260506160905 | 46 | 225 | 3.5 | 3.5 | 0.00 | 0.48 | 0.48 | 99 | 1037.6 |
| 20260506160402 | 46 | 239 | 2.6 | 4.3 | 0.00 | 0.48 | 0.48 | 99 | 1037.2 |
| 20260506155900 | 46 | 232 | 2.6 | 5.2 | 0.00 | 0.48 | 0.48 | 99 | 1037.1 |
| 20260506155356 | 46 | 232 | 3.5 | 4.3 | 0.00 | 0.48 | 0.48 | 99 | 1037.2 |
| 20260506153514 | 45 | 245 | 1.7 | 4.3 | 0.00 | 0.48 | 0.48 | 99 | 1037.2 |
| 20260506153011 | 45 | 236 | 1.7 | 4.3 | 0.02 | 0.48 | 0.48 | 99 | 1037.3 |
| 20260506152508 | 45 | 258 | 3.5 | 4.3 | 0.00 | 0.47 | 0.47 | 99 | 1037.4 |
| 20260506152006 | 45 | 240 | 2.6 | 4.3 | 0.00 | 0.47 | 0.47 | 99 | 1037.3 |
| 20260506151503 | 45 | 226 | 2.6 | 3.5 | 0.00 | 0.47 | 0.47 | 99 | 1037.2 |
| 20260506151000 | 45 | 246 | 4.3 | 4.3 | 0.02 | 0.47 | 0.47 | 99 | 1037.2 |
| 20260506150456 | 44 | 243 | 2.6 | 7.0 | 0.00 | 0.47 | 0.47 | 99 | 1037.3 |
| 20260506145954 | 45 | 231 | 4.3 | 6.1 | 0.00 | 0.47 | 0.47 | 99 | 1037.4 |
| 20260506145450 | 45 | 233 | 2.6 | 4.3 | 0.00 | 0.47 | 0.47 | 99 | 1037.3 |
| 20260506144948 | 45 | 252 | 3.5 | 7.0 | 0.02 | 0.47 | 0.47 | 99 | 1037.2 |
| 20260506144444 | 45 | 228 | 3.5 | 3.5 | 0.02 | 0.47 | 0.47 | 99 | 1037.3 |
| 20260506143942 | 44 | 272 | 4.3 | 6.1 | 0.05 | 0.47 | 0.47 | 99 | 1037.1 |
| 20260506143439 | 45 | 240 | 2.6 | 4.3 | 0.02 | 0.46 | 0.46 | 99 | 1037.0 |
| 20260506142938 | 45 | 225 | 3.5 | 4.3 | 0.02 | 0.46 | 0.46 | 99 | 1036.8 |
| 20260506142435 | 45 | 240 | 2.6 | 4.3 | 0.05 | 0.46 | 0.46 | 99 | 1036.8 |
| 20260506141933 | 45 | 237 | 2.6 | 3.5 | 0.05 | 0.45 | 0.45 | 99 | 1036.7 |
| 20260506141430 | 45 | 213 | 2.6 | 3.5 | 0.02 | 0.45 | 0.45 | 99 | 1036.9 |
| 20260506140929 | 45 | 229 | 2.6 | 3.5 | 0.00 | 0.45 | 0.45 | 99 | 1036.7 |
| 20260506140425 | 45 | 229 | 2.6 | 4.3 | 0.02 | 0.45 | 0.45 | 99 | 1036.9 |
| 20260506135922 | 45 | 255 | 1.7 | 3.5 | 0.02 | 0.45 | 0.45 | 99 | 1037.0 |
| 20260506135420 | 45 | 229 | 3.5 | 4.3 | 0.02 | 0.44 | 0.44 | 99 | 1036.9 |
| 20260506134916 | 45 | 226 | 3.5 | 3.5 | 0.12 | 0.44 | 0.44 | 99 | 1037.1 |
| 20260506134412 | 45 | 239 | 3.5 | 4.3 | 0.19 | 0.44 | 0.44 | 99 | 1037.2 |
| 20260506133909 | 45 | 222 | 2.6 | 5.2 | 0.07 | 0.41 | 0.41 | 99 | 1037.1 |
| 20260506133406 | 45 | 226 | 2.6 | 6.1 | 0.07 | 0.41 | 0.41 | 99 | 1037.2 |
| 20260506132902 | 45 | 249 | 2.6 | 5.2 | 0.07 | 0.40 | 0.40 | 99 | 1037.1 |
| 20260506132359 | 45 | 242 | 3.5 | 6.1 | 0.09 | 0.39 | 0.39 | 99 | 1036.8 |
| 20260506131857 | 46 | 250 | 3.5 | 4.3 | 0.09 | 0.39 | 0.39 | 99 | 1036.8 |
| 20260506131353 | 46 | 250 | 2.6 | 3.5 | 0.09 | 0.38 | 0.38 | 99 | 1037.1 |
| 20260506130851 | 46 | 243 | 2.6 | 3.5 | 0.05 | 0.37 | 0.37 | 99 | 1037.2 |
| 20260506130347 | 46 | 254 | 3.5 | 6.1 | 0.07 | 0.36 | 0.36 | 99 | 1037.3 |
| 20260506125845 | 46 | 227 | 2.6 | 4.3 | 0.09 | 0.36 | 0.36 | 99 | 1037.2 |
| 20260506125343 | 46 | 233 | 4.3 | 4.3 | 0.12 | 0.35 | 0.35 | 99 | 1037.0 |
| 20260506124841 | 46 | 227 | 4.3 | 5.2 | 0.17 | 0.34 | 0.34 | 99 | 1037.1 |
| 20260506124338 | 48 | 252 | 1.7 | 4.3 | 0.21 | 0.33 | 0.33 | 99 | 1037.3 |
| 20260506123835 | 48 | 225 | 2.6 | 3.5 | 0.17 | 0.31 | 0.31 | 99 | 1036.9 |
| 20260506123334 | 48 | 251 | 1.7 | 4.3 | 0.07 | 0.29 | 0.29 | 99 | 1036.9 |
| 20260506122831 | 48 | 228 | 3.5 | 3.5 | 0.07 | 0.28 | 0.28 | 99 | 1036.7 |
| 20260506122327 | 48 | 251 | 3.5 | 3.5 | 0.07 | 0.28 | 0.28 | 99 | 1036.8 |
| 20260506121826 | 48 | 262 | 2.6 | 4.3 | 0.12 | 0.27 | 0.27 | 99 | 1036.7 |
| 20260506121322 | 48 | 233 | 2.6 | 3.5 | 0.09 | 0.26 | 0.26 | 99 | 1036.7 |
| 20260506120820 | 48 | 240 | 3.5 | 4.3 | 0.12 | 0.25 | 0.25 | 99 | 1036.6 |
| 20260506120317 | 48 | 253 | 2.6 | 3.5 | 0.12 | 0.24 | 0.24 | 99 | 1036.5 |
| 20260506115814 | 48 | 241 | 2.6 | 3.5 | 0.09 | 0.23 | 0.23 | 99 | 1036.7 |
| 20260506115313 | 48 | 235 | 2.6 | 4.3 | 0.07 | 0.22 | 0.22 | 99 | 1036.5 |
| 20260506114810 | 48 | 262 | 2.6 | 4.3 | 0.02 | 0.22 | 0.22 | 99 | 1036.5 |
| 20260506114308 | 48 | 260 | 2.6 | 3.5 | 0.02 | 0.21 | 0.21 | 99 | 1036.7 |
| 20260506113806 | 48 | 237 | 2.6 | 3.5 | 0.05 | 0.21 | 0.21 | 99 | 1036.6 |
| 20260506113303 | 48 | 249 | 2.6 | 3.5 | 0.07 | 0.21 | 0.21 | 99 | 1036.5 |
| 20260506112800 | 48 | 240 | 2.6 | 3.5 | 0.05 | 0.20 | 0.20 | 99 | 1036.4 |
| 20260506112257 | 48 | 231 | 2.6 | 4.3 | 0.07 | 0.20 | 0.20 | 99 | 1036.3 |
| 20260506111754 | 48 | 290 | 1.7 | 4.3 | 0.09 | 0.19 | 0.19 | 99 | 1036.2 |
| 20260506111252 | 48 | 246 | 2.6 | 3.5 | 0.09 | 0.18 | 0.18 | 99 | 1036.6 |
| 20260506110749 | 48 | 243 | 2.6 | 3.5 | 0.09 | 0.17 | 0.17 | 99 | 1036.6 |
| 20260506110247 | 48 | 227 | 2.6 | 3.5 | 0.12 | 0.17 | 0.17 | 99 | 1036.4 |
| 20260506105743 | 48 | 251 | 1.7 | 3.5 | 0.12 | 0.16 | 0.16 | 99 | 1036.7 |
| 20260506105240 | 48 | 236 | 2.6 | 3.5 | 0.09 | 0.14 | 0.14 | 99 | 1036.8 |
| 20260506104738 | 48 | 248 | 2.6 | 2.6 | 0.07 | 0.13 | 0.13 | 99 | 1036.7 |
| 20260506104235 | 48 | 247 | 2.6 | 2.6 | 0.07 | 0.13 | 0.13 | 99 | 1036.6 |
| 20260506103732 | 48 | 263 | 2.6 | 2.6 | 0.07 | 0.12 | 0.12 | 99 | 1036.6 |
| 20260506103230 | 48 | 265 | 1.7 | 2.6 | 0.02 | 0.11 | 0.11 | 99 | 1036.6 |
| 20260506102727 | 47 | 266 | 1.7 | 2.6 | 0.05 | 0.11 | 0.11 | 99 | 1036.7 |
| 20260506102225 | 47 | 255 | 1.7 | 2.6 | 0.07 | 0.11 | 0.11 | 99 | 1036.8 |
| 20260506101722 | 47 | 270 | 1.7 | 2.6 | 0.07 | 0.10 | 0.10 | 99 | 1036.6 |
| 20260506101218 | 47 | 278 | 1.7 | 2.6 | 0.07 | 0.09 | 0.09 | 99 | 1036.7 |
| 20260506100716 | 47 | 270 | 1.7 | 2.6 | 0.07 | 0.09 | 0.09 | 99 | 1037.0 |
| 20260506100214 | 47 | 270 | 1.7 | 1.7 | 0.09 | 0.08 | 0.08 | 99 | 1036.8 |
| 20260506095712 | 47 | 286 | 1.7 | 1.7 | 0.07 | 0.07 | 0.07 | 99 | 1036.8 |
| 20260506095209 | 47 | 279 | 1.7 | 1.7 | 0.05 | 0.07 | 0.07 | 99 | 1037.2 |
| 20260506094706 | 47 | 294 | 0.9 | 1.7 | 0.07 | 0.06 | 0.06 | 99 | 1037.1 |
| 20260506094204 | 47 | 265 | 1.7 | 1.7 | 0.07 | 0.06 | 0.06 | 99 | 1037.0 |
| 20260506093703 | 47 | 257 | 1.7 | 1.7 | 0.05 | 0.05 | 0.05 | 99 | 1036.9 |
| 20260506093159 | 47 | 250 | 1.7 | 2.6 | 0.09 | 0.05 | 0.05 | 99 | 1036.9 |
| 20260506092657 | 47 | 270 | 1.7 | 2.6 | 0.07 | 0.04 | 0.04 | 99 | 1036.9 |
| 20260506092154 | 47 | 265 | 1.7 | 3.5 | 0.07 | 0.03 | 0.03 | 99 | 1037.0 |
| 20260506091652 | 47 | 246 | 2.6 | 4.3 | 0.05 | 0.02 | 0.02 | 99 | 1037.4 |
| 20260506091149 | 47 | 265 | 1.7 | 2.6 | 0.05 | 0.02 | 0.02 | 99 | 1037.4 |
| 20260506090647 | 47 | 253 | 2.6 | 2.6 | 0.02 | 0.02 | 0.02 | 99 | 1037.5 |
| 20260506090143 | 47 | 253 | 2.6 | 2.6 | 0.02 | 0.01 | 0.01 | 99 | 1037.7 |
| 20260506085640 | 47 | 270 | 1.7 | 1.7 | 0.05 | 0.01 | 0.01 | 99 | 1037.3 |
| 20260506085136 | 47 | 270 | 1.7 | 2.6 | 0.02 | 0.01 | 0.01 | 99 | 1037.1 |
| 20260506084633 | 47 | 261 | 2.6 | 2.6 | 0.00 | 0.00 | 0.00 | 99 | 1037.1 |
| 20260506084130 | 47 | 290 | 1.7 | 1.7 | 0.00 | 0.00 | 0.00 | 99 | 1037.0 |
| 20260506083627 | 47 | 275 | 1.7 | 2.6 | 0.00 | 0.00 | 0.00 | 99 | 1037.1 |
| 20260506083125 | 47 | 270 | 0.9 | 1.7 | 0.00 | 0.00 | 0.00 | 99 | 1037.1 |
| 20260506082621 | 47 | 270 | 1.7 | 1.7 | 0.00 | 0.00 | 0.00 | 99 | 1037.1 |
| 20260506082117 | 47 | 270 | 1.7 | 1.7 | 0.02 | 0.00 | 0.00 | 99 | 1037.0 |
| 20260506081615 | 47 | 275 | 1.7 | 1.7 | 0.02 | 0.00 | 0.00 | 99 | 1037.0 |
| 20260506081112 | 47 | 265 | 1.7 | 1.7 | 0.00 | 0.00 | 0.00 | 99 | 1037.1 |
| 20260506080610 | 47 | 276 | 0.9 | 1.7 | 0.00 | 0.00 | 0.00 | 99 | 1037.1 |
| 20260506080106 | 47 | 270 | 0.9 | 1.7 | 0.00 | 0.00 | 0.00 | 99 | 1037.3 |
| 20260506073050 | 47 | 283 | 1.7 | 1.7 | 0.00 | 0.00 | 0.00 | 99 | 1037.1 |
| 20260506072547 | 47 | 282 | 0.9 | 1.7 | 0.00 | 0.00 | 0.00 | 99 | 1037.5 |
| 20260506072045 | 47 | 250 | 1.7 | 1.7 | 0.00 | 0.00 | 0.00 | 99 | 1037.4 |
| 20260506071543 | 47 | 241 | 1.7 | 2.6 | 0.00 | 0.00 | 0.00 | 99 | 1037.4 |
| 20260506071040 | 47 | 270 | 0.9 | 1.7 | 0.00 | 0.00 | 0.00 | 99 | 1037.4 |
| 20260506070537 | 47 | 265 | 1.7 | 1.7 | 0.00 | 0.00 | 0.00 | 99 | 1037.7 |
| 20260506062514 | 47 | 264 | 1.7 | 1.7 | 0.00 | 0.00 | 0.00 | 99 | 1038.2 |
| 20260506062011 | 47 | 264 | 0.9 | 1.7 | 0.00 | 0.00 | 0.00 | 99 | 1038.3 |
| 20260506061506 | 47 | 262 | 1.7 | 1.7 | 0.00 | 0.00 | 0.00 | 99 | 1038.2 |
| 20260506061005 | 46 | 270 | 0.9 | 1.7 | 0.00 | 0.00 | 0.00 | 99 | 1038.5 |
| 20260506060503 | 46 | 270 | 1.7 | 1.7 | 0.00 | 0.00 | 0.00 | 99 | 1038.7 |
| 20260506050931 | 46 | 280 | 1.7 | 2.6 | 0.00 | 0.00 | 0.00 | 99 | 1039.3 |
| 20260506050429 | 46 | 270 | 1.7 | 1.7 | 0.00 | 0.00 | 0.00 | 99 | 1039.1 |
| 20260506044920 | 46 | 283 | 0.9 | 1.7 | 0.00 | 0.00 | 0.00 | 99 | 1039.2 |
| 20260506044418 | 46 | 255 | 1.7 | 2.6 | 0.00 | 0.00 | 0.00 | 99 | 1039.0 |
| 20260506043915 | 46 | 255 | 0.9 | 1.7 | 0.00 | 0.00 | 0.00 | 99 | 1039.4 |
| 20260506043412 | 47 | 270 | 1.7 | 2.6 | 0.00 | 0.00 | 0.00 | 99 | 1039.4 |
| 20260506042910 | 47 | 270 | 0.9 | 1.7 | 0.00 | 0.00 | 0.00 | 99 | 1039.5 |
| 20260506042409 | 47 | 248 | 1.7 | 1.7 | 0.00 | 0.00 | 0.00 | 99 | 1039.3 |
| 20260506041906 | 48 | 270 | 1.7 | 2.6 | 0.00 | 0.00 | 0.00 | 98 | 1039.3 |
| 20260506041404 | 48 | 276 | 0.9 | 1.7 | 0.00 | 0.00 | 0.00 | 97 | 1039.2 |